Weather in Segyan-Kyuel'

Russia / Sakha (Yakutia) Republic     64°00′09″N   130°18′37″E
temp.,
°C
wind,
m/s
gust,
m/s
humid.,
%
clouds,
%
prec.,
mm/h
press.,
hPa
HPBL,
m
14 may, fri
fri1400:00−1nne44715 0.0 101332
03:00−2n44720 0.0 101445
06:000nne33591 0.0 1014137
09:00+4nne114922 0.0 1014479
12:00+7nw114477 0.0 1012991
15:00+8n11414 0.0 10121192
18:00+8ne21431 0.0 1011615
21:00+3ne22580 0.0 101210
15 may, sat
sat1500:00+2n33589 0.0 101211
03:00+1nne226245 0.0 101111
06:00+4ne12565 0.0 1011114
09:00+7e11475 0.0 1010680
12:00+10se01415 0.0 10081312
15:00+11nne113813 0.0 10071649
18:00+11e22386 0.0 10061491
21:00+7ene115446 0.0 100610
16 may, sun
sun1600:00+5ene225650 0.0 100519
03:00+4e346313 0.0 100584
06:00+7ese597062 0.1 1005691
09:00+8e687087 0.3 10041005
12:00+11ese885399 0.7 10011657
15:00+11se675498 1.4 10001478
18:00+10se686281 1.1 10001170
21:00+7ese4783100 1.8 1000245
17 may, mon
mon1700:00+6ese4785100 1.0 1000448
03:00+6ne3490100 1.6 999252
06:00+6ene3787100 0.5 999715
09:00+8ese6766100 1.0 9981299
12:00+8e3568100 0.3 9981030
15:00+9e1358100 0.4 9971277
18:00+9s1357100 0.3 9961077
21:00+7ene1177100 0.6 99718
18 may, tue
tue1800:00+6ssw2283100 0.4 99752
03:00+5nne3386100 0.8 99775
06:00+5se1184100 0.1 998217
09:00+5ssw1289100 0.3 998423
12:00+4ssw4392100 0.5 999424
15:00+3ssw3390100 0.7 1001463
18:00+2sw3286100 0.1 1002579
21:00+2ssw2283100 0.1 1002407